Year,Month,Day,Hour,Minute,Value (Times are PST for temperature in C)
2009,09,23,10,24,18.20
2009,09,23,10,25,18.20
2009,09,23,10,26,18.20
2009,09,23,10,27,18.30
2009,09,23,10,28,18.40
2009,09,23,10,29,18.40
2009,09,23,10,30,18.50
2009,09,23,10,31,18.50
2009,09,23,10,32,18.50
2009,09,23,10,33,18.50
2009,09,23,10,34,18.60
2009,09,23,10,35,18.70
2009,09,23,10,36,18.70
2009,09,23,10,37,18.70
2009,09,23,10,38,18.70
2009,09,23,10,39,18.70
2009,09,23,10,40,18.70
2009,09,23,10,41,18.70
2009,09,23,10,42,18.70
2009,09,23,10,43,18.70
2009,09,23,10,44,18.60
2009,09,23,10,45,18.60
2009,09,23,10,46,18.50
2009,09,23,10,47,18.50
2009,09,23,10,48,18.40
2009,09,23,10,49,18.30
2009,09,23,10,50,18.30
2009,09,23,10,51,18.40
2009,09,23,10,52,18.40
2009,09,23,10,53,18.50
2009,09,23,10,54,18.60
2009,09,23,10,55,18.60
2009,09,23,10,56,18.70
2009,09,23,10,57,18.70
2009,09,23,10,58,18.70
2009,09,23,10,59,18.80
2009,09,23,11,00,18.80
2009,09,23,11,01,18.70
2009,09,23,11,02,18.70
2009,09,23,11,03,18.70
2009,09,23,11,04,18.70
2009,09,23,11,05,18.70
2009,09,23,11,06,18.70
2009,09,23,11,07,18.70
2009,09,23,11,08,18.70
2009,09,23,11,09,18.80
2009,09,23,11,10,18.90
2009,09,23,11,11,19.00
2009,09,23,11,12,19.10
2009,09,23,11,13,19.10
2009,09,23,11,14,18.90
2009,09,23,11,15,18.90
2009,09,23,11,16,18.90
2009,09,23,11,17,19.00
2009,09,23,11,18,19.10
2009,09,23,11,19,19.10
2009,09,23,11,20,19.10
2009,09,23,11,21,19.20
2009,09,23,11,22,19.20
2009,09,23,11,23,19.30
2009,09,23,11,24,19.40
2009,09,23,11,25,19.50
2009,09,23,11,26,19.50
2009,09,23,11,27,19.40
2009,09,23,11,28,19.40
2009,09,23,11,29,19.30
2009,09,23,11,30,19.20
2009,09,23,11,31,19.30
2009,09,23,11,32,19.30
2009,09,23,11,33,19.50
2009,09,23,11,34,19.60
2009,09,23,11,35,19.70
2009,09,23,11,36,19.70
2009,09,23,11,37,19.90
2009,09,23,11,38,20.00
2009,09,23,11,39,20.20
2009,09,23,11,40,20.40
2009,09,23,11,41,20.50
2009,09,23,11,42,20.70
2009,09,23,11,43,20.80
2009,09,23,11,44,20.80
2009,09,23,11,45,20.80
2009,09,23,11,46,20.60
2009,09,23,11,47,20.40
2009,09,23,11,48,20.30
2009,09,23,11,49,20.20
2009,09,23,11,50,20.20
2009,09,23,11,51,20.30
2009,09,23,11,52,20.50
2009,09,23,11,53,20.70
2009,09,23,11,54,20.80
2009,09,23,11,55,20.70
2009,09,23,11,56,20.80
2009,09,23,11,57,20.90
2009,09,23,11,58,20.90
2009,09,23,11,59,20.90
2009,09,23,12,00,20.90
2009,09,23,12,01,21.20
2009,09,23,12,02,21.20
2009,09,23,12,03,21.10
2009,09,23,12,04,21.10
2009,09,23,12,05,21.10
2009,09,23,12,06,21.00
2009,09,23,12,07,20.90
2009,09,23,12,08,20.90
2009,09,23,12,09,20.80
2009,09,23,12,10,20.80
2009,09,23,12,11,21.00
2009,09,23,12,12,21.10
2009,09,23,12,13,21.00
2009,09,23,12,14,21.00
2009,09,23,12,15,21.00
2009,09,23,12,16,20.90
2009,09,23,12,17,20.90
2009,09,23,12,18,20.90
2009,09,23,12,19,20.80
2009,09,23,12,20,20.80
2009,09,23,12,21,20.80
2009,09,23,12,22,20.90
2009,09,23,12,23,20.90
2009,09,23,12,24,20.90
2009,09,23,12,25,20.80
2009,09,23,12,26,20.80
2009,09,23,12,27,20.70
2009,09,23,12,28,20.70
2009,09,23,12,29,20.80
2009,09,23,12,30,21.00
2009,09,23,12,31,21.00
2009,09,23,12,32,21.00
2009,09,23,12,33,21.20
2009,09,23,12,34,21.30
2009,09,23,12,35,21.40
2009,09,23,12,36,21.50
2009,09,23,12,37,21.40
2009,09,23,12,38,21.30
2009,09,23,12,39,21.30
2009,09,23,12,40,21.30
2009,09,23,12,41,21.30
2009,09,23,12,42,21.30
2009,09,23,12,43,21.30
2009,09,23,12,44,21.20
2009,09,23,12,45,21.20
2009,09,23,12,46,21.20
2009,09,23,12,47,21.10
2009,09,23,12,48,21.10
2009,09,23,12,49,21.20
2009,09,23,12,50,21.30
2009,09,23,12,51,21.30
2009,09,23,12,52,21.30
2009,09,23,12,53,21.30
2009,09,23,12,54,21.30
2009,09,23,12,55,21.30
2009,09,23,12,56,21.10
2009,09,23,12,57,20.80
2009,09,23,12,58,20.70
2009,09,23,12,59,20.80
2009,09,23,13,00,20.80
2009,09,23,13,01,20.90
2009,09,23,13,02,20.80
2009,09,23,13,03,20.60
2009,09,23,13,04,20.50
2009,09,23,13,05,20.60
2009,09,23,13,06,20.40
2009,09,23,13,07,20.20
2009,09,23,13,08,20.10
2009,09,23,13,09,20.00
2009,09,23,13,10,19.90
2009,09,23,13,11,19.70
2009,09,23,13,12,19.70
2009,09,23,13,13,19.60
2009,09,23,13,14,19.50
2009,09,23,13,15,19.50
2009,09,23,13,16,19.60
2009,09,23,13,17,19.60
2009,09,23,13,18,19.60
2009,09,23,13,19,19.60
2009,09,23,13,20,19.60
2009,09,23,13,21,19.60
2009,09,23,13,22,19.50
2009,09,23,13,23,19.50
2009,09,23,13,24,19.50
2009,09,23,13,25,19.60
2009,09,23,13,26,19.50
2009,09,23,13,27,19.60
2009,09,23,13,28,19.50
2009,09,23,13,29,19.40
2009,09,23,13,30,19.30
2009,09,23,13,31,19.10
2009,09,23,13,32,19.10
2009,09,23,13,33,19.10
2009,09,23,13,34,19.10
2009,09,23,13,35,19.10
2009,09,23,13,36,19.20
2009,09,23,13,37,19.20
2009,09,23,13,38,18.90
2009,09,23,13,39,18.60
2009,09,23,13,40,18.40
2009,09,23,13,41,18.30
2009,09,23,13,42,18.30
2009,09,23,13,43,18.40
2009,09,23,13,44,18.40
2009,09,23,13,45,18.50
2009,09,23,13,46,18.50
2009,09,23,13,47,18.40
2009,09,23,13,48,18.20
2009,09,23,13,49,18.10
2009,09,23,13,50,18.10
2009,09,23,13,51,18.00
2009,09,23,13,52,17.90
2009,09,23,13,53,17.70
2009,09,23,13,54,17.60
2009,09,23,13,55,17.50
2009,09,23,13,56,17.50
2009,09,23,13,57,17.60
2009,09,23,13,58,17.70
2009,09,23,13,59,17.70
2009,09,23,14,00,17.70
2009,09,23,14,01,17.80
2009,09,23,14,02,17.90
2009,09,23,14,03,17.90
2009,09,23,14,04,17.90
2009,09,23,14,05,17.90
2009,09,23,14,06,17.90
2009,09,23,14,07,18.00
2009,09,23,14,08,17.90
2009,09,23,14,09,17.80
2009,09,23,14,10,17.70
2009,09,23,14,11,17.70
2009,09,23,14,12,17.60
2009,09,23,14,13,17.60
2009,09,23,14,14,17.70
2009,09,23,14,15,17.90
2009,09,23,14,16,17.90
2009,09,23,14,17,18.10
2009,09,23,14,18,18.20
2009,09,23,14,19,18.20
2009,09,23,14,20,18.20
2009,09,23,14,21,18.20
2009,09,23,14,22,18.30
2009,09,23,14,23,18.30
2009,09,23,14,24,18.40
2009,09,23,14,25,18.50
2009,09,23,14,26,18.60
2009,09,23,14,27,18.70
2009,09,23,14,28,18.90
2009,09,23,14,29,19.00
2009,09,23,14,30,19.10
2009,09,23,14,31,19.40
2009,09,23,14,32,19.40
2009,09,23,14,33,19.30
2009,09,23,14,34,19.30
2009,09,23,14,35,19.00
2009,09,23,14,36,18.90
2009,09,23,14,37,18.90
2009,09,23,14,38,18.80
2009,09,23,14,39,18.80
2009,09,23,14,40,18.80
2009,09,23,14,41,18.80
2009,09,23,14,42,18.90
2009,09,23,14,43,18.80
2009,09,23,14,44,18.70
2009,09,23,14,45,18.80
2009,09,23,14,46,18.80
2009,09,23,14,47,18.90
2009,09,23,14,48,19.10
2009,09,23,14,49,19.10
2009,09,23,14,50,19.00
2009,09,23,14,51,19.00
2009,09,23,14,52,19.10
2009,09,23,14,53,19.30
2009,09,23,14,54,19.30
2009,09,23,14,55,19.30
2009,09,23,14,56,19.20
2009,09,23,14,57,19.20
2009,09,23,14,58,19.30
2009,09,23,14,59,19.30
2009,09,23,15,00,19.40
2009,09,23,15,01,19.50
2009,09,23,15,02,19.50
2009,09,23,15,03,19.40
2009,09,23,15,04,19.30
2009,09,23,15,05,19.40
2009,09,23,15,06,19.50
2009,09,23,15,07,19.60
2009,09,23,15,08,19.60
2009,09,23,15,09,19.60
2009,09,23,15,10,19.50
2009,09,23,15,11,19.40
2009,09,23,15,12,19.20
2009,09,23,15,13,19.00
2009,09,23,15,14,18.90
2009,09,23,15,15,18.60
2009,09,23,15,16,18.50
2009,09,23,15,17,18.30
2009,09,23,15,18,18.10
2009,09,23,15,19,18.10
2009,09,23,15,20,18.10
2009,09,23,15,21,18.10
2009,09,23,15,22,18.10
2009,09,23,15,23,18.10
2009,09,23,15,24,18.00
2009,09,23,15,25,17.90
2009,09,23,15,26,17.70
2009,09,23,15,27,17.50
2009,09,23,15,28,17.30
2009,09,23,15,29,17.20
2009,09,23,15,30,17.20
2009,09,23,15,31,17.20
2009,09,23,15,32,17.20
2009,09,23,15,33,17.10
2009,09,23,15,34,17.00
2009,09,23,15,35,17.00
2009,09,23,15,36,17.00
2009,09,23,15,37,16.90
2009,09,23,15,38,16.90
2009,09,23,15,39,16.90
2009,09,23,15,40,16.80
2009,09,23,15,41,16.70
2009,09,23,15,42,16.70
2009,09,23,15,43,16.70
2009,09,23,15,44,16.60
2009,09,23,15,45,16.40
2009,09,23,15,46,16.40
2009,09,23,15,47,16.40
2009,09,23,15,48,16.40
2009,09,23,15,49,16.40
2009,09,23,15,50,16.50
2009,09,23,15,51,16.70
2009,09,23,15,52,16.70
2009,09,23,15,53,16.80
2009,09,23,15,54,16.80
2009,09,23,15,55,16.90
2009,09,23,15,56,16.90
2009,09,23,15,57,16.80
2009,09,23,15,58,16.80
2009,09,23,15,59,16.80
2009,09,23,16,00,16.80
2009,09,23,16,01,16.80
2009,09,23,16,02,16.80
2009,09,23,16,03,16.70
2009,09,23,16,04,16.80
2009,09,23,16,05,16.90
2009,09,23,16,06,17.00
2009,09,23,16,07,17.10
2009,09,23,16,08,17.20
2009,09,23,16,09,17.30
2009,09,23,16,10,17.50
2009,09,23,16,11,17.70
2009,09,23,16,12,17.90
2009,09,23,16,13,18.00
2009,09,23,16,14,18.10
2009,09,23,16,15,18.20
2009,09,23,16,16,18.40
2009,09,23,16,17,18.60
2009,09,23,16,18,18.90
2009,09,23,16,19,19.00
2009,09,23,16,20,19.20
2009,09,23,16,21,19.30
2009,09,23,16,22,19.50
2009,09,23,16,23,19.60
2009,09,23,16,24,19.80
2009,09,23,16,25,19.90
2009,09,23,16,26,19.90
2009,09,23,16,27,20.00
2009,09,23,16,28,20.10
2009,09,23,16,29,20.00
2009,09,23,16,30,19.90
2009,09,23,16,31,19.80
2009,09,23,16,32,19.80
2009,09,23,16,33,19.80
2009,09,23,16,34,19.70
2009,09,23,16,35,19.70
2009,09,23,16,36,19.80
2009,09,23,16,37,19.80
2009,09,23,16,38,19.90
2009,09,23,16,39,19.90
2009,09,23,16,40,19.90
2009,09,23,16,41,19.90
2009,09,23,16,42,19.90
2009,09,23,16,43,19.90
2009,09,23,16,44,19.90
2009,09,23,16,45,20.00
2009,09,23,16,46,20.10
2009,09,23,16,47,20.10
2009,09,23,16,48,20.10
2009,09,23,16,49,20.10
2009,09,23,16,50,20.10
2009,09,23,16,51,20.10
2009,09,23,16,52,20.10
2009,09,23,16,53,20.00
2009,09,23,16,54,19.90
2009,09,23,16,55,19.90
2009,09,23,16,56,19.90
2009,09,23,16,57,19.80
2009,09,23,16,58,19.80
2009,09,23,16,59,19.90
2009,09,23,17,00,19.90
2009,09,23,17,01,19.80
2009,09,23,17,02,19.80
2009,09,23,17,03,19.80
2009,09,23,17,04,19.80
2009,09,23,17,05,19.80
2009,09,23,17,06,19.80
2009,09,23,17,07,19.80
2009,09,23,17,08,19.80
2009,09,23,17,09,19.80
2009,09,23,17,10,19.90
2009,09,23,17,11,20.10
2009,09,23,17,12,20.20
2009,09,23,17,13,20.30
2009,09,23,17,14,20.20
2009,09,23,17,15,20.20
2009,09,23,17,16,20.30
2009,09,23,17,17,20.40
2009,09,23,17,18,20.40
2009,09,23,17,19,20.50
2009,09,23,17,20,20.50
2009,09,23,17,21,20.50
2009,09,23,17,22,20.50
2009,09,23,17,23,20.70
2009,09,23,17,24,20.80
2009,09,23,17,25,20.90
2009,09,23,17,26,21.00
2009,09,23,17,27,21.10
2009,09,23,17,28,21.40
2009,09,23,17,29,21.50
2009,09,23,17,30,21.80
2009,09,23,17,31,22.00
2009,09,23,17,32,22.20
2009,09,23,17,33,22.40
2009,09,23,17,34,22.60
2009,09,23,17,35,22.80
2009,09,23,17,36,23.00
2009,09,23,17,37,23.30
2009,09,23,17,38,23.40
2009,09,23,17,39,23.70
2009,09,23,17,40,23.80
2009,09,23,17,41,24.00
2009,09,23,17,42,24.10
2009,09,23,17,43,24.30
2009,09,23,17,44,24.40
2009,09,23,17,45,24.50
2009,09,23,17,46,24.60
2009,09,23,17,47,24.80
2009,09,23,17,48,24.90
2009,09,23,17,49,24.90
2009,09,23,17,50,25.00
2009,09,23,17,51,25.10
2009,09,23,17,52,25.10
2009,09,23,17,53,25.20
2009,09,23,17,54,25.20
2009,09,23,17,55,25.20
2009,09,23,17,56,25.20
2009,09,23,17,57,25.20
2009,09,23,17,58,25.20
2009,09,23,17,59,25.20
2009,09,23,18,00,25.10
2009,09,23,18,01,25.10
2009,09,23,18,02,25.00
2009,09,23,18,03,25.00
2009,09,23,18,04,24.90
2009,09,23,18,05,24.90
2009,09,23,18,06,24.80
2009,09,23,18,07,24.80
2009,09,23,18,08,24.80
2009,09,23,18,09,24.70
2009,09,23,18,10,24.70
2009,09,23,18,11,24.70
2009,09,23,18,12,24.70
2009,09,23,18,13,24.70
2009,09,23,18,14,24.70
2009,09,23,18,15,24.60
2009,09,23,18,16,24.60
2009,09,23,18,17,24.60
2009,09,23,18,18,24.60
2009,09,23,18,19,24.50
2009,09,23,18,20,24.50
2009,09,23,18,21,24.40
2009,09,23,18,22,24.40
2009,09,23,18,23,24.30
2009,09,23,18,24,24.30
2009,09,23,18,25,24.30
2009,09,23,18,26,24.30
2009,09,23,18,27,24.20
2009,09,23,18,28,24.20
2009,09,23,18,29,24.10
2009,09,23,18,30,24.10
2009,09,23,18,31,24.10
2009,09,23,18,32,24.10
2009,09,23,18,33,23.90
2009,09,23,18,34,23.50
2009,09,23,18,35,23.00
2009,09,23,18,36,22.70
2009,09,23,18,37,22.50
2009,09,23,18,38,22.40
2009,09,23,18,39,22.40
2009,09,23,18,40,22.40
2009,09,23,18,41,22.30
2009,09,23,18,42,22.10
2009,09,23,18,43,22.00
2009,09,23,18,44,21.90
2009,09,23,18,45,21.70
2009,09,23,18,46,21.60
2009,09,23,18,47,21.40
2009,09,23,18,48,21.30
2009,09,23,18,49,21.30
2009,09,23,18,50,21.20
2009,09,23,18,51,21.10
2009,09,23,18,52,21.00
2009,09,23,18,53,20.90
2009,09,23,18,54,20.80
2009,09,23,18,55,20.60
2009,09,23,18,56,20.50
2009,09,23,18,57,20.40
2009,09,23,18,58,20.30
2009,09,23,18,59,20.20
2009,09,23,19,00,20.10
2009,09,23,19,01,20.00
2009,09,23,19,02,19.90
2009,09,23,19,03,19.90
2009,09,23,19,04,19.70
2009,09,23,19,05,19.60
2009,09,23,19,06,19.40
2009,09,23,19,07,19.40
2009,09,23,19,08,19.30
2009,09,23,19,09,19.10
2009,09,23,19,10,19.10
2009,09,23,19,11,18.90
2009,09,23,19,12,18.90
2009,09,23,19,13,18.80
2009,09,23,19,14,18.70
2009,09,23,19,15,18.60
2009,09,23,19,16,18.50
2009,09,23,19,17,18.40
2009,09,23,19,18,18.20
2009,09,23,19,19,18.20
2009,09,23,19,20,18.10
2009,09,23,19,21,18.10
2009,09,23,19,22,18.00
2009,09,23,19,23,17.90
2009,09,23,19,24,17.90
2009,09,23,19,25,17.90
2009,09,23,19,26,17.90
2009,09,23,19,27,17.80
2009,09,23,19,28,17.80
2009,09,23,19,29,17.70
2009,09,23,19,30,17.70
2009,09,23,19,31,17.60
2009,09,23,19,32,17.60
2009,09,23,19,33,17.50
2009,09,23,19,34,17.50
2009,09,23,19,35,17.50
2009,09,23,19,36,17.50
2009,09,23,19,37,17.50
2009,09,23,19,38,17.40
2009,09,23,19,39,17.40
2009,09,23,19,40,17.40
2009,09,23,19,41,17.40
2009,09,23,19,42,17.30
2009,09,23,19,43,17.30
2009,09,23,19,44,17.20
2009,09,23,19,45,17.10
2009,09,23,19,46,17.00
2009,09,23,19,47,16.90
2009,09,23,19,48,16.90
2009,09,23,19,49,16.80
2009,09,23,19,50,16.70
2009,09,23,19,51,16.70
2009,09,23,19,52,16.70
2009,09,23,19,53,16.70
2009,09,23,19,54,16.70
2009,09,23,19,55,16.70
2009,09,23,19,56,16.70
2009,09,23,19,57,16.60
2009,09,23,19,58,16.60
2009,09,23,19,59,16.40
2009,09,23,20,00,16.40
2009,09,23,20,01,16.40
2009,09,23,20,02,16.40
2009,09,23,20,03,16.40
2009,09,23,20,04,16.40
2009,09,23,20,05,16.40
2009,09,23,20,06,16.30
2009,09,23,20,07,16.30
2009,09,23,20,08,16.30
2009,09,23,20,09,16.20
2009,09,23,20,10,16.20
2009,09,23,20,11,16.10
2009,09,23,20,12,16.10
2009,09,23,20,13,16.10
2009,09,23,20,14,16.10
2009,09,23,20,15,16.10
2009,09,23,20,16,16.10
2009,09,23,20,17,16.10
2009,09,23,20,18,16.10
2009,09,23,20,19,16.10
2009,09,23,20,20,16.00
2009,09,23,20,21,15.90
2009,09,23,20,22,15.80
2009,09,23,20,23,15.80
2009,09,23,20,24,15.80
2009,09,23,20,25,15.80
2009,09,23,20,26,15.80
2009,09,23,20,27,15.70
2009,09,23,20,28,15.70
2009,09,23,20,29,15.70
2009,09,23,20,30,15.60
2009,09,23,20,31,15.60
2009,09,23,20,32,15.60
2009,09,23,20,33,15.60
2009,09,23,20,34,15.50
2009,09,23,20,35,15.50
2009,09,23,20,36,15.50
2009,09,23,20,37,15.50
2009,09,23,20,38,15.50
2009,09,23,20,39,15.50
2009,09,23,20,40,15.50
2009,09,23,20,41,15.50
2009,09,23,20,42,15.50
2009,09,23,20,43,15.40
2009,09,23,20,44,15.40
2009,09,23,20,45,15.40
2009,09,23,20,46,15.30
2009,09,23,20,47,15.30
2009,09,23,20,48,15.30
2009,09,23,20,49,15.20
2009,09,23,20,50,15.20
2009,09,23,20,51,15.10
2009,09,23,20,52,15.10
2009,09,23,20,53,15.00
2009,09,23,20,54,15.00
2009,09,23,20,55,15.00
2009,09,23,20,56,14.90
2009,09,23,20,57,14.90
2009,09,23,20,58,14.90
2009,09,23,20,59,14.90
2009,09,23,21,00,14.80
2009,09,23,21,01,14.80
2009,09,23,21,02,14.80
2009,09,23,21,03,14.80
2009,09,23,21,04,14.80
2009,09,23,21,05,14.80
2009,09,23,21,06,14.80
2009,09,23,21,07,14.70
2009,09,23,21,08,14.70
2009,09,23,21,09,14.70
2009,09,23,21,10,14.70
2009,09,23,21,11,14.70
2009,09,23,21,12,14.70
2009,09,23,21,13,14.70
2009,09,23,21,14,14.70
2009,09,23,21,15,14.80
2009,09,23,21,16,14.80
2009,09,23,21,17,14.80
2009,09,23,21,18,14.80
2009,09,23,21,19,14.80
2009,09,23,21,20,14.80
2009,09,23,21,21,14.80
2009,09,23,21,22,14.80
2009,09,23,21,23,14.80
2009,09,23,21,24,14.80
2009,09,23,21,25,14.90
2009,09,23,21,26,14.90
2009,09,23,21,27,15.00
2009,09,23,21,28,15.00
2009,09,23,21,29,15.10
2009,09,23,21,30,15.10
2009,09,23,21,31,15.10
2009,09,23,21,32,15.10
2009,09,23,21,33,15.10
2009,09,23,21,34,15.10
2009,09,23,21,35,15.10
2009,09,23,21,36,15.10
2009,09,23,21,37,15.20
2009,09,23,21,38,15.20
2009,09,23,21,39,15.20
2009,09,23,21,40,15.20
2009,09,23,21,41,15.20
2009,09,23,21,42,15.20
2009,09,23,21,43,15.20
2009,09,23,21,44,15.20
2009,09,23,21,45,15.20
2009,09,23,21,46,15.20
2009,09,23,21,47,15.20
2009,09,23,21,48,15.20
2009,09,23,21,49,15.20
2009,09,23,21,50,15.20
2009,09,23,21,51,15.20
2009,09,23,21,52,15.10
2009,09,23,21,53,15.10
2009,09,23,21,54,15.10
2009,09,23,21,55,15.10
2009,09,23,21,56,15.10
2009,09,23,21,57,15.10
2009,09,23,21,58,15.10
2009,09,23,21,59,15.10
2009,09,23,22,00,15.10
2009,09,23,22,01,15.00
2009,09,23,22,02,15.00
2009,09,23,22,03,15.00
2009,09,23,22,04,15.00
2009,09,23,22,05,15.00
2009,09,23,22,06,15.00
2009,09,23,22,07,15.00
2009,09,23,22,08,15.00
2009,09,23,22,09,15.00
2009,09,23,22,10,15.00
2009,09,23,22,11,15.00
2009,09,23,22,12,15.00
2009,09,23,22,13,14.90
2009,09,23,22,14,14.90
2009,09,23,22,15,14.90
2009,09,23,22,16,14.90
2009,09,23,22,17,14.80
2009,09,23,22,18,14.80
2009,09,23,22,19,14.80
2009,09,23,22,20,14.80
2009,09,23,22,21,14.80
2009,09,23,22,22,14.70
2009,09,23,22,23,14.70
2009,09,23,22,24,14.70
2009,09,23,22,25,14.70
2009,09,23,22,26,14.70
2009,09,23,22,27,14.70
2009,09,23,22,28,14.70
2009,09,23,22,29,14.70
2009,09,23,22,30,14.70
2009,09,23,22,31,14.80
2009,09,23,22,32,14.80
2009,09,23,22,33,14.80
2009,09,23,22,34,14.80
2009,09,23,22,35,14.80
2009,09,23,22,36,14.80
2009,09,23,22,37,14.70
2009,09,23,22,38,14.70
2009,09,23,22,39,14.70
2009,09,23,22,40,14.70
2009,09,23,22,41,14.60
2009,09,23,22,42,14.60
2009,09,23,22,43,14.60
2009,09,23,22,44,14.60
2009,09,23,22,45,14.60
2009,09,23,22,46,14.50
2009,09,23,22,47,14.50
2009,09,23,22,48,14.50
2009,09,23,22,49,14.50
2009,09,23,22,50,14.50
2009,09,23,22,51,14.40
2009,09,23,22,52,14.40
2009,09,23,22,53,14.40
2009,09,23,22,54,14.40
2009,09,23,22,55,14.40
2009,09,23,22,56,14.40
2009,09,23,22,57,14.50
2009,09,23,22,58,14.50
2009,09,23,22,59,14.50
2009,09,23,23,00,14.50
2009,09,23,23,01,14.50
2009,09,23,23,02,14.50
2009,09,23,23,03,14.50
2009,09,23,23,04,14.50
2009,09,23,23,05,14.50
2009,09,23,23,06,14.50
2009,09,23,23,07,14.50
2009,09,23,23,08,14.50
2009,09,23,23,09,14.50
2009,09,23,23,10,14.40
2009,09,23,23,11,14.40
2009,09,23,23,12,14.40
2009,09,23,23,13,14.40
2009,09,23,23,14,14.40
2009,09,23,23,15,14.40
2009,09,23,23,16,14.40
2009,09,23,23,17,14.40
2009,09,23,23,18,14.40
2009,09,23,23,19,14.40
2009,09,23,23,20,14.40
2009,09,23,23,21,14.40
2009,09,23,23,22,14.30
2009,09,23,23,23,14.30
2009,09,23,23,24,14.30
2009,09,23,23,25,14.30
2009,09,23,23,26,14.30
2009,09,23,23,27,14.30
2009,09,23,23,28,14.20
2009,09,23,23,29,14.20
2009,09,23,23,30,14.20
2009,09,23,23,31,14.20
2009,09,23,23,32,14.20
2009,09,23,23,33,14.20
2009,09,23,23,34,14.20
2009,09,23,23,35,14.20
2009,09,23,23,36,14.20
2009,09,23,23,37,14.20
2009,09,23,23,38,14.20
2009,09,23,23,39,14.20
2009,09,23,23,40,14.20
2009,09,23,23,41,14.20
2009,09,23,23,42,14.20
2009,09,23,23,43,14.20
2009,09,23,23,44,14.20
2009,09,23,23,45,14.20
2009,09,23,23,46,14.20
2009,09,23,23,47,14.20
2009,09,23,23,48,14.20
2009,09,23,23,49,14.20
2009,09,23,23,50,14.20
2009,09,23,23,51,14.20
2009,09,23,23,52,14.20
2009,09,23,23,53,14.20
2009,09,23,23,54,14.20
2009,09,23,23,55,14.20
2009,09,23,23,56,14.20
2009,09,23,23,57,14.10
2009,09,23,23,58,14.10
2009,09,23,23,59,14.10
